Weather History for Northeast Philadelphia, PA

Change the Weather History Date:

Friday, July 11, 2014

  Actual Average Record
Temperature  
Mean Temperature 78 °F -  
Max Temperature 89 °F 83 °F 91 °F (2005)
Min Temperature 69 °F 63 °F 57 °F (1996)
Cooling Degree Days 14    
Growing Degree Days 28 (Base 50)    
Moisture  
Dew Point 60 °F    
Average Humidity 54    
Maximum Humidity 78    
Minimum Humidity 32    
Precipitation  
Precipitation 0.01 in - - ()
Sea Level Pressure  
Sea Level Pressure 30.18 in    
Wind  
Wind Speed 5 mph (ENE)    
Max Wind Speed 12 mph    
Max Gust Speed 17 mph    
Visibility 10 miles    
Events Rain    
Averages and records for this station are not official NWS values.
T = Trace of Precipitation, MM = Missing Value Source: NWS Daily Summary

Daily Weather History Graph

Daily Weather History Graph

Search for Another Location

Airport:

Trip Planner

Search our weather history database for the weather conditions in past years. The results will help you decide how hot, cold, wet, or windy it might be!

Date:

Astronomy

Jul. 11, 2014 Rise Set
Actual Time 5:40 AM EDT 8:30 PM EDT
Civil Twilight 5:08 AM EDT 9:02 PM EDT
Nautical Twilight 4:27 AM EDT 9:42 PM EDT
Astronomical Twilight 3:41 AM EDT 10:28 PM EDT
Moon 7:38 PM EDT (7/11) 4:50 AM EDT (7/11)
Length of Visible Light 15h 53m
Length of Day
14h 49m
Waxing Gibbous, 99% of the Moon is Illuminated
Jul 11
Waxing Gibbous
Jul 12
Full
Jul 18
Last Quarter
Jul 26
New
Aug 3
First Quarter

Hourly Weather History & Observations

Time (EDT) Temp. Heat Index Dew Point Humidity Pressure Visibility Wind Dir Wind Speed Gust Speed Precip Events Conditions
12:54 AM 73.0 °F - 61.0 °F 66% 30.14 in 10.0 mi ESE 5.8 mph - N/A   Clear
1:54 AM 73.0 °F - 63.0 °F 71% 30.14 in 10.0 mi Calm Calm - 0.01 in Rain Light Rain
2:54 AM 72.0 °F - 64.0 °F 76% 30.14 in 10.0 mi NE 4.6 mph - 0.00 in   Scattered Clouds
3:54 AM 71.1 °F - 62.1 °F 73% 30.14 in 10.0 mi North 4.6 mph - N/A   Clear
4:54 AM 70.0 °F - 62.1 °F 76% 30.15 in 10.0 mi North 4.6 mph - N/A   Clear
5:54 AM 69.1 °F - 62.1 °F 78% 30.16 in 10.0 mi North 4.6 mph - N/A   Clear
6:54 AM 71.1 °F - 63.0 °F 75% 30.17 in 8.0 mi Calm Calm - N/A   Clear
7:54 AM 73.9 °F - 63.0 °F 68% 30.19 in 10.0 mi NE 9.2 mph - N/A   Clear
8:54 AM 75.9 °F - 62.1 °F 62% 30.21 in 10.0 mi ENE 8.1 mph - N/A   Clear
9:54 AM 80.1 °F 81.1 °F 61.0 °F 52% 30.21 in 10.0 mi NE 9.2 mph - N/A   Clear
10:54 AM 81.0 °F 81.7 °F 61.0 °F 50% 30.21 in 10.0 mi NE 9.2 mph - N/A   Clear
11:54 AM 84.0 °F 84.4 °F 61.0 °F 46% 30.21 in 10.0 mi NE 8.1 mph 17.3 mph N/A   Clear
12:54 PM 84.9 °F 84.2 °F 57.9 °F 40% 30.21 in 10.0 mi ESE 8.1 mph - N/A   Clear
1:54 PM 86.0 °F 85.0 °F 57.9 °F 38% 30.19 in 10.0 mi Variable 4.6 mph - N/A   Mostly Cloudy
2:54 PM 87.1 °F 85.7 °F 55.9 °F 35% 30.19 in 10.0 mi SE 8.1 mph - N/A   Scattered Clouds
3:54 PM 88.0 °F 86.1 °F 55.0 °F 32% 30.18 in 10.0 mi North - - N/A   Partly Cloudy
4:54 PM 86.0 °F 84.2 °F 54.0 °F 33% 30.17 in 10.0 mi Calm Calm - N/A   Partly Cloudy
5:54 PM 87.1 °F 85.1 °F 54.0 °F 32% 30.16 in 10.0 mi ESE 3.5 mph - N/A   Clear
6:54 PM 84.0 °F 83.8 °F 59.0 °F 43% 30.17 in 10.0 mi SE 11.5 mph - N/A   Partly Cloudy
7:54 PM 81.0 °F 81.3 °F 59.0 °F 47% 30.19 in 10.0 mi South 8.1 mph - N/A   Partly Cloudy
8:54 PM 80.1 °F 80.6 °F 57.9 °F 47% 30.19 in 10.0 mi Variable 6.9 mph - N/A   Mostly Cloudy
9:54 PM 78.1 °F - 60.1 °F 54% 30.21 in 10.0 mi Calm Calm - N/A   Mostly Cloudy
10:54 PM 77.0 °F - 59.0 °F 54% 30.23 in 10.0 mi SSE 5.8 mph - 0.00 in   Overcast
11:54 PM 75.9 °F - 59.0 °F 56% 30.24 in 10.0 mi Calm Calm - N/A   Partly Cloudy